Location: Elmsmere
(40.9284°N, 73.8207°W)
Time: 06:10:04
(UTC+00:00)

CZ-2D R/B - Pass Details

Date: 29 October 2020
Orbit: 521 x 537 km, 97.4° (Epoch: 27 November)

Event Time Altitude Azimuth Distance (km) Brightness Sun altitude
Rises 23:39:55 0° 181° (S) 2,647 6.8 -20.5°
Reaches altitude 10° 23:42:05 10° 187° (S) 1,761 6.0 -20.9°
Maximum altitude 23:45:43 45° 261° (W) 726 4.3 -21.6°
Drops below altitude 10° 23:49:23 10° 335° (NNW) 1,768 6.2 -22.3°
Sets 23:51:34 0° 342° (NNW) 2,660 7.1 -22.7°
